SQ5SUI-3 Weather Reports


time (UTC)temp
F
wind
direction
speed
knots
gust
knots
rain 1hr
in
rain 24hr
in
rain mn
in
humidity
%
barometer
mb
20260508053330 51 306 0.9 2.6 0.00 0.02 0.00 93 1010.3
20260508050329 50 339 0.9 3.5 0.00 0.02 0.00 98 1010.6
20260508043329 49 345 0.9 3.5 0.00 0.02 0.00 99 1010.4
20260508040329 49 347 2.6 5.2 0.00 0.02 0.00 97 1010.7
20260508033328 49 331 2.6 4.3 0.00 0.02 0.00 95 1011.0
20260508030330 50 326 1.7 5.2 0.00 0.02 0.00 90 1011.0
20260508023329 51 307 2.6 3.5 0.00 0.02 0.00 89 1011.3
20260508020328 51 321 1.7 4.3 0.00 0.02 0.00 89 1011.6
20260508013330 51 329 2.6 4.3 0.00 0.02 0.00 90 1011.7
20260508010329 51 314 2.6 5.2 0.00 0.02 0.00 90 1011.9
20260508003329 51 318 1.7 4.3 0.00 0.02 0.00 91 1011.9
20260508000329 51 318 1.7 4.3 0.00 0.02 0.00 92 1012.1
20260507233329 52 309 0.9 3.5 0.00 0.02 0.00 92 1011.9
20260507230328 52 324 1.7 2.6 0.00 0.02 0.00 91 1011.8
20260507223329 52 310 0.9 3.5 0.00 0.02 0.00 90 1011.8
20260507220329 52 319 0.9 3.5 0.00 0.02 0.00 90 1012.1
20260507213328 53 337 3.5 6.1 0.00 0.02 0.02 92 1012.5
20260507210330 53 298 1.7 3.5 0.01 0.02 0.02 94 1012.8
20260507203330 54 330 1.7 4.3 0.02 0.02 0.02 91 1013.0
20260507200330 54 276 0.0 1.7 0.01 0.01 0.01 87 1013.5
20260507193329 55 302 0.0 1.7 0.00 0.00 0.00 85 1013.3
20260507190329 56 329 0.9 4.3 0.00 0.00 0.00 85 1013.3
20260507183329 57 314 0.9 3.5 0.00 0.00 0.00 83 1013.6
20260507180330 58 330 0.9 5.2 0.00 0.00 0.00 77 1014.1
20260507173330 60 330 1.7 6.1 0.00 0.00 0.00 72 1014.9
20260507170329 61 317 1.7 5.2 0.00 0.00 0.00 69 1015.5
20260507163330 62 344 4.3 7.8 0.00 0.00 0.00 67 1016.0
20260507160328 63 318 3.5 7.8 0.00 0.00 0.00 64 1015.9
20260507153329 64 332 4.3 7.0 0.00 0.00 0.00 62 1016.1
20260507150328 65 332 3.5 7.8 0.00 0.00 0.00 62 1016.2
20260507143328 65 302 1.7 6.1 0.00 0.00 0.00 63 1015.7
20260507140330 64 314 2.6 7.0 0.00 0.00 0.00 66 1015.8
20260507133329 62 282 3.5 6.1 0.00 0.00 0.00 69 1015.9
20260507130329 64 286 2.6 9.6 0.00 0.00 0.00 65 1015.8
20260507123328 64 320 1.7 7.8 0.00 0.00 0.00 66 1016.2
20260507120330 64 328 7.8 10.4 0.00 0.00 0.00 67 1016.2
20260507113328 64 293 5.2 11.3 0.00 0.00 0.00 68 1016.4
20260507110329 64 299 2.6 7.8 0.00 0.00 0.00 69 1016.7
20260507103329 68 320 2.6 13.9 0.00 0.00 0.00 62 1017.2
20260507100330 70 286 3.5 6.1 0.00 0.00 0.00 58 1017.9
20260507093328 69 323 5.2 7.8 0.00 0.00 0.00 60 1018.0
20260507090329 72 266 2.6 6.1 0.00 0.00 0.00 53 1018.5
20260507083328 71 240 2.6 10.4 0.00 0.00 0.00 55 1018.6
20260507080329 69 265 0.0 5.2 0.00 0.00 0.00 60 1018.7
20260507073329 68 233 3.5 5.2 0.00 0.00 0.00 61 1018.9
20260507070329 68 218 4.3 7.8 0.00 0.00 0.00 58 1019.3
20260507063329 68 197 3.5 6.1 0.00 0.00 0.00 59 1019.8
20260507060328 66 201 2.6 5.2 0.00 0.00 0.00 62 1019.8